Location: Detroit
(42.3310°N, 83.0460°W)
Time: 08:17:06
(UTC-04:00)

Explorer 11/Cluster Stage 4 - Pass Details

Date: 06 February 2023
Orbit: 466 x 1241 km, 28.8° (Epoch: 02 April)

Event Time Altitude Azimuth Distance (km) Brightness Sun altitude
Exits shadow 04:17:34 22° 152° (SSE) 2,310 9.0 -37.7°
Drops below altitude 10° 04:22:28 10° 116° (ESE) 3,167 10.2 -36.8°
Sets 04:26:09 0° 102° (ESE) 4,167 11.1 -36.2°
